User: anonymous   Login
Location: Columbus
(29.5618°N, 96.6770°W)
Time: 14:40:27
(UTC-05:00)
Language:

Cosmos 2056 Rocket - Orbit

View from above orbital plane
View from above orbital plane
View from above satellite
View from above satellite

Ground track
Ground track

The orbit data is extracted from the following two-line orbital elements,

1 20433U 90004B   18147.27884191 -.00000010 +00000-0 +56018-5 0  9993
2 20433 074.0368 084.4635 0040111 130.9575 337.2815 14.36029288484311
Epoch (UTC): 27 May 2018 06:41:31
Eccentricity: 0.0040111
inclination: 74.0368°
perigee height: 743 km
apogee height: 800 km
right ascension of ascending node: 84.4635°
argument of perigee: 130.9575°
revolutions per day: 14.36029288
mean anomaly at epoch: 337.2815°
orbit number at epoch: 48431

The dashed part of the orbit path shows where the satellite is in the earth's shadow,  

DLR